This demonstration page uses our WeatherBlox Daily Observations layout. Learn more.

Left ArrowRight Arrow

36.19886, -115.1175

Hourly Observations for November 26, 2015

Temp ( °F °C ) Dew Point ( °F °C ) Humidity (%) Winds ( mph kmh ) Pressure ( in mb ) Visibility ( mi km ) Precip ( " mm )
12:53 am 00:53 Clear 44 6.7 20 -6.7 38 38 NNW 10 17 29.91 1013 10 16 0.00 0.00
1:53 am 01:53 Clear 43 6.1 26 -3.3 51 51 N 8 13 29.93 1014 10 16 0.00 0.00
2:53 am 02:53 Mostly Clear 44 6.7 26 -3.3 49 49 NNW 13 20 29.94 1014 10 16 0.00 0.00
3:53 am 03:53 Clear 42 5.6 29 -1.7 60 60 N 16 26 29.96 1015 10 16 0.00 0.00
4:53 am 04:53 Clear 43 6.1 28 -2.2 56 56 NNW 13 20 29.98 1015 10 16 0.00 0.00
5:53 am 05:53 Clear 41 5 27 -2.8 57 57 N 10 17 30.01 1016 10 16 0.00 0.00
6:53 am 06:53 Sunny 40 4.4 27 -2.8 60 60 NNW 7 11 30.03 1017 10 16 0.00 0.00
7:53 am 07:53 Sunny 43 6.1 26 -3.3 51 51 N 9 15 30.04 1017 10 16 0.00 0.00
8:53 am 08:53 Sunny 47 8.3 26 -3.3 44 44 NNW 13 20 30.06 1018 10 16 0.00 0.00
9:53 am 09:53 Sunny 50 10 23 -5 35 35 NNW 17 28 30.06 1018 10 16 0.00 0.00
10:53 am 10:53 Sunny 51 10.6 21 -6.1 31 31 N 13 20 30.04 1017 10 16 0.00 0.00
11:53 am 11:53 Sunny 52 11.1 21 -6.1 30 30 NNW 13 20 30.03 1017 10 16 0.00 0.00
12:53 pm 12:53 Sunny 53 11.7 20 -6.7 27 27 NNW 6 9 30.01 1016 10 16 0.00 0.00
1:53 pm 13:53 Sunny 53 11.7 18 -7.8 25 25 NNW 6 9 30.01 1016 10 16 0.00 0.00
2:53 pm 14:53 Sunny 53 11.7 17 -8.3 24 24 NNW 7 11 30.00 1016 10 16 0.00 0.00
3:53 pm 15:53 Sunny 53 11.7 17 -8.3 24 24 NNW 7 11 30.01 1016 10 16 0.00 0.00
4:53 pm 16:53 Partly Cloudy 51 10.6 17 -8.3 26 26 N 5 7 30.01 1016 10 16 0.00 0.00
5:53 pm 17:53 Clear 50 10 16 -8.9 26 26 ENE 5 7 30.02 1017 10 16 0.00 0.00
6:53 pm 18:53 Clear 47 8.3 17 -8.3 30 30 N 6 9 30.04 1017 10 16 0.00 0.00
7:53 pm 19:53 Clear 47 8.3 17 -8.3 30 30 NNW 6 9 30.04 1017 10 16 0.00 0.00
8:53 pm 20:53 Clear 46 7.8 16 -8.9 30 30 NNW 7 11 30.05 1018 10 16 0.00 0.00
9:53 pm 21:53 Clear 46 7.8 15 -9.4 29 29 NNW 12 19 30.05 1018 10 16 0.00 0.00
10:53 pm 22:53 Clear 45 7.2 13 -10.6 27 27 NNW 10 17 30.06 1018 10 16 0.00 0.00
11:53 pm 23:53 Clear 44 6.7 11 -11.7 26 26 NNW 14 22 30.06 1018 10 16 0.00 0.00

Powered by AerisWeather